,,Stat5,,Stat1,,Stat2,,Stat3,,Stat4,,Wind1,,Wind1,
time,status,PA1M_AVG,status,PR1M_SUM,status,RH1M_AVG,status,SR1M_AVG,status,TA1M_AVG,status,W1dAve1m,status,W1sAve1m,
2002-04-30, 00:00:00,VALID,915.776,VALID,0,VALID,99.6925,VALID,0,VALID,19.3916,VALID,44,VALID,0.603002,
2002-04-30, 00:01:00,VALID,915.755,VALID,0,VALID,99.7014,VALID,-0.0169808,VALID,19.3946,VALID,40,VALID,0.542634,
2002-04-30, 00:02:00,VALID,915.749,VALID,0,VALID,99.7014,VALID,0,VALID,19.3883,VALID,35,VALID,0.356771,
2002-04-30, 00:03:00,VALID,915.729,VALID,0,VALID,99.7002,VALID,-0.0169808,VALID,19.4085,VALID,35,VALID,0.167752,
2002-04-30, 00:04:00,VALID,915.742,VALID,0,VALID,99.7002,VALID,0,VALID,19.4271,VALID,35,VALID,0.0898438,
2002-04-30, 00:05:00,VALID,915.756,VALID,0,VALID,99.6913,VALID,0,VALID,19.4274,VALID,35,VALID,0,
2002-04-30, 00:06:00,VALID,915.769,VALID,0,VALID,99.6976,VALID,-0.0169808,VALID,19.4207,VALID,35,VALID,0,
2002-04-30, 00:07:00,VALID,915.784,VALID,0,VALID,99.7014,VALID,0,VALID,19.4174,VALID,52,VALID,0.123733,
2002-04-30, 00:08:00,VALID,915.802,VALID,0,VALID,99.704,VALID,0,VALID,19.3976,VALID,98,VALID,0.388021,
2002-04-30, 00:09:00,VALID,915.812,VALID,0,VALID,99.704,VALID,0,VALID,19.405,VALID,123,VALID,0.348184,
2002-04-30, 00:10:00,VALID,915.833,VALID,0,VALID,99.7116,VALID,0.0169808,VALID,19.3821,VALID,130,VALID,0.474095,
2002-04-30, 00:11:00,VALID,915.845,VALID,0,VALID,99.7167,VALID,-0.0169808,VALID,19.3754,VALID,129,VALID,0.709498,
2002-04-30, 00:12:00,VALID,915.86,VALID,0,VALID,99.704,VALID,0.0169808,VALID,19.3951,VALID,128,VALID,0.797081,
2002-04-30, 00:13:00,VALID,915.872,VALID,0,VALID,99.7078,VALID,0,VALID,19.4043,VALID,131,VALID,0.974918,
2002-04-30, 00:14:00,VALID,915.877,VALID,0,VALID,99.7065,VALID,0,VALID,19.4207,VALID,122,VALID,0.866016,
2002-04-30, 00:15:00,VALID,915.873,VALID,0,VALID,99.6989,VALID,0.0169808,VALID,19.4236,VALID,100,VALID,0.55193,
2002-04-30, 00:16:00,VALID,915.893,VALID,0,VALID,99.7014,VALID,0,VALID,19.4169,VALID,110,VALID,1.3125,
2002-04-30, 00:17:00,VALID,915.88,VALID,0,VALID,99.6951,VALID,0.0339617,VALID,19.4207,VALID,108,VALID,1.2646,
2002-04-30, 00:18:00,VALID,915.868,VALID,0,VALID,99.7052,VALID,0,VALID,19.4139,VALID,121,VALID,1.5549,
2002-04-30, 00:19:00,VALID,915.853,VALID,0,VALID,99.7167,VALID,0,VALID,19.4241,VALID,120,VALID,1.35797,
2002-04-30, 00:20:00,VALID,915.851,VALID,0,VALID,99.7027,VALID,0,VALID,19.4338,VALID,115,VALID,1.4477,
2002-04-30, 00:21:00,VALID,915.81,VALID,0,VALID,99.7065,VALID,0,VALID,19.4301,VALID,113,VALID,1.49557,
2002-04-30, 00:22:00,VALID,915.8,VALID,0,VALID,99.7052,VALID,0,VALID,19.4303,VALID,128,VALID,0.684416,
2002-04-30, 00:23:00,VALID,915.773,VALID,0,VALID,99.7091,VALID,0,VALID,19.4341,VALID,104,VALID,0.60617,
2002-04-30, 00:24:00,VALID,915.743,VALID,0,VALID,99.7154,VALID,0,VALID,19.4234,VALID,91,VALID,0.633008,
2002-04-30, 00:25:00,VALID,915.726,VALID,0,VALID,99.7192,VALID,0.0169808,VALID,19.4239,VALID,98,VALID,0.65004,
2002-04-30, 00:26:00,VALID,915.708,VALID,0,VALID,99.7154,VALID,0,VALID,19.4139,VALID,123,VALID,0.856771,
2002-04-30, 00:27:00,VALID,915.69,VALID,0,VALID,99.7256,VALID,0,VALID,19.4139,VALID,98,VALID,0.587416,
2002-04-30, 00:28:00,VALID,915.672,VALID,0,VALID,99.723,VALID,0.0169808,VALID,19.4075,VALID,98,VALID,0.482372,
2002-04-30, 00:29:00,VALID,915.66,VALID,0,VALID,99.7269,VALID,0.0169808,VALID,19.401,VALID,134,VALID,0.891276,
2002-04-30, 00:30:00,VALID,915.634,VALID,0,VALID,99.723,VALID,0,VALID,19.4139,VALID,119,VALID,0.680556,
2002-04-30, 00:31:00,VALID,915.616,VALID,0,VALID,99.723,VALID,0,VALID,19.4172,VALID,151,VALID,0.843149,
2002-04-30, 00:32:00,VALID,915.6,VALID,0,VALID,99.7167,VALID,0,VALID,19.4271,VALID,153,VALID,1.13746,
2002-04-30, 00:33:00,VALID,915.58,VALID,0,VALID,99.7243,VALID,0,VALID,19.4174,VALID,165,VALID,1.14523,
2002-04-30, 00:34:00,VALID,915.573,VALID,0,VALID,99.718,VALID,0,VALID,19.4333,VALID,171,VALID,0.643709,
2002-04-30, 00:35:00,VALID,915.551,VALID,0,VALID,99.723,VALID,0,VALID,19.4366,VALID,148,VALID,0.926829,
2002-04-30, 00:36:00,VALID,915.541,VALID,0,VALID,99.7269,VALID,0,VALID,19.4403,VALID,139,VALID,0.922075,
2002-04-30, 00:37:00,VALID,915.525,VALID,0,VALID,99.7269,VALID,0,VALID,19.4204,VALID,127,VALID,0.72424,
2002-04-30, 00:38:00,VALID,915.502,VALID,0,VALID,99.7281,VALID,0,VALID,19.4174,VALID,120,VALID,0.58327,
2002-04-30, 00:39:00,VALID,915.487,VALID,0,VALID,99.7205,VALID,0,VALID,19.4177,VALID,117,VALID,0.338742,
2002-04-30, 00:40:00,VALID,915.479,VALID,0,VALID,99.7269,VALID,0,VALID,19.4107,VALID,136,VALID,0.713049,
2002-04-30, 00:41:00,VALID,915.461,VALID,0,VALID,99.7332,VALID,0,VALID,19.4311,VALID,143,VALID,0.390842,
2002-04-30, 00:42:00,VALID,915.45,VALID,0,VALID,99.7294,VALID,0,VALID,19.4207,VALID,119,VALID,0.408854,
2002-04-30, 00:43:00,VALID,915.424,VALID,0,VALID,99.7294,VALID,-0.0169808,VALID,19.4239,VALID,82,VALID,0.658548,
2002-04-30, 00:44:00,VALID,915.402,VALID,0,VALID,99.723,VALID,0,VALID,19.4008,VALID,80,VALID,0.794202,
2002-04-30, 00:45:00,VALID,915.388,VALID,0,VALID,99.7294,VALID,0,VALID,19.4008,VALID,83,VALID,0.881168,
2002-04-30, 00:46:00,VALID,915.379,VALID,0,VALID,99.7408,VALID,0.0169808,VALID,19.3916,VALID,64,VALID,0.82487,
2002-04-30, 00:47:00,VALID,915.373,VALID,0,VALID,99.7332,VALID,0,VALID,19.3816,VALID,77,VALID,0.955181,
2002-04-30, 00:48:00,VALID,915.383,VALID,0,VALID,99.7307,VALID,0,VALID,19.3787,VALID,71,VALID,1.12773,
2002-04-30, 00:49:00,VALID,915.389,VALID,0,VALID,99.7307,VALID,-0.0169808,VALID,19.369,VALID,67,VALID,1.11164,
2002-04-30, 00:50:00,VALID,915.384,VALID,0,VALID,99.7307,VALID,0,VALID,19.3588,VALID,63,VALID,1.21813,
2002-04-30, 00:51:00,VALID,915.382,VALID,0,VALID,99.7447,VALID,0,VALID,19.3657,VALID,55,VALID,1.03242,
2002-04-30, 00:52:00,VALID,915.381,VALID,0,VALID,99.7421,VALID,-0.0169808,VALID,19.3757,VALID,51,VALID,0.635617,
2002-04-30, 00:53:00,VALID,915.383,VALID,0,VALID,99.737,VALID,-0.0849042,VALID,19.3766,VALID,56,VALID,1.18138,
2002-04-30, 00:54:00,VALID,915.359,VALID,0,VALID,99.7307,VALID,-0.101885,VALID,19.3642,VALID,60,VALID,1.1033,
2002-04-30, 00:55:00,VALID,915.34,VALID,0,VALID,99.7256,VALID,-0.135847,VALID,19.3744,VALID,69,VALID,0.724159,
2002-04-30, 00:56:00,VALID,915.349,VALID,0,VALID,99.7332,VALID,-0.135847,VALID,19.3811,VALID,56,VALID,0.560811,
2002-04-30, 00:57:00,VALID,915.33,VALID,0,VALID,99.737,VALID,-0.118866,VALID,19.3771,VALID,60,VALID,0.630068,
2002-04-30, 00:58:00,VALID,915.311,VALID,0,VALID,99.7319,VALID,-0.101885,VALID,19.3637,VALID,74,VALID,0.569931,
2002-04-30, 00:59:00,VALID,915.28,VALID,0,VALID,99.737,VALID,-0.101885,VALID,19.3707,VALID,52,VALID,0.336782,
2002-04-30, 01:00:00,VALID,915.269,VALID,0,VALID,99.737,VALID,-0.118866,VALID,19.3841,VALID,31,VALID,0.372266,
2002-04-30, 01:01:00,VALID,915.234,VALID,0,VALID,99.7396,VALID,-0.118866,VALID,19.3806,VALID,53,VALID,0.461138,
2002-04-30, 01:02:00,VALID,915.211,VALID,0,VALID,99.7383,VALID,-0.101885,VALID,19.3838,VALID,30,VALID,0.358789,
2002-04-30, 01:03:00,VALID,915.18,VALID,0,VALID,99.737,VALID,-0.101885,VALID,19.3769,VALID,55,VALID,0.492804,
2002-04-30, 01:04:00,VALID,915.152,VALID,0,VALID,99.7396,VALID,-0.101885,VALID,19.3841,VALID,62,VALID,0.576275,
2002-04-30, 01:05:00,VALID,915.125,VALID,0,VALID,99.7345,VALID,-0.101885,VALID,19.3674,VALID,108,VALID,0.685811,
2002-04-30, 01:06:00,VALID,915.11,VALID,0,VALID,99.7396,VALID,-0.118866,VALID,19.3677,VALID,121,VALID,0.989453,
2002-04-30, 01:07:00,VALID,915.113,VALID,0,VALID,99.7434,VALID,-0.101885,VALID,19.3672,VALID,130,VALID,0.54362,
2002-04-30, 01:08:00,VALID,915.098,VALID,0,VALID,99.7421,VALID,-0.0339617,VALID,19.3732,VALID,124,VALID,1.16258,
2002-04-30, 01:09:00,VALID,915.095,VALID,0,VALID,99.7421,VALID,0,VALID,19.3757,VALID,132,VALID,0.77097,
2002-04-30, 01:10:00,VALID,915.069,VALID,0,VALID,99.7459,VALID,-0.0169808,VALID,19.356,VALID,99,VALID,0.84304,
2002-04-30, 01:11:00,VALID,915.057,VALID,0,VALID,99.7472,VALID,0,VALID,19.3722,VALID,104,VALID,0.751234,
2002-04-30, 01:12:00,VALID,915.039,VALID,0,VALID,99.7396,VALID,-0.0169808,VALID,19.3762,VALID,125,VALID,0.774414,
2002-04-30, 01:13:00,VALID,915.016,VALID,0.2,VALID,99.7319,VALID,0,VALID,19.3826,VALID,116,VALID,0.651521,
2002-04-30, 01:14:00,VALID,915.01,VALID,0,VALID,99.7434,VALID,0,VALID,19.3759,VALID,83,VALID,0.133635,
2002-04-30, 01:15:00,VALID,915.005,VALID,0,VALID,99.7548,VALID,0.0169808,VALID,19.3752,VALID,100,VALID,0.219161,
2002-04-30, 01:16:00,VALID,914.995,VALID,0,VALID,99.7396,VALID,0,VALID,19.3789,VALID,157,VALID,0.428486,
2002-04-30, 01:17:00,VALID,914.976,VALID,0,VALID,99.7396,VALID,0,VALID,19.3727,VALID,159,VALID,1.26795,
2002-04-30, 01:18:00,VALID,914.983,VALID,0,VALID,99.7345,VALID,0,VALID,19.3727,VALID,205,VALID,0.526727,
2002-04-30, 01:19:00,VALID,914.967,VALID,0,VALID,99.7421,VALID,0,VALID,19.3754,VALID,221,VALID,0.76582,
2002-04-30, 01:20:00,VALID,914.952,VALID,0,VALID,99.7485,VALID,0,VALID,19.3625,VALID,224,VALID,0.454861,
2002-04-30, 01:21:00,VALID,914.948,VALID,0,VALID,99.7447,VALID,-0.0169808,VALID,19.3764,VALID,227,VALID,0.310389,
2002-04-30, 01:22:00,VALID,914.928,VALID,0,VALID,99.7434,VALID,-0.0339617,VALID,19.3722,VALID,158,VALID,0.513775,
2002-04-30, 01:23:00,VALID,914.904,VALID,0,VALID,99.7447,VALID,-0.0169808,VALID,19.3824,VALID,146,VALID,0.339509,
2002-04-30, 01:24:00,VALID,914.9,VALID,0,VALID,99.7523,VALID,-0.0169808,VALID,19.3789,VALID,152,VALID,0.399916,
2002-04-30, 01:25:00,VALID,914.895,VALID,0,VALID,99.751,VALID,0,VALID,19.3762,VALID,136,VALID,0.403166,
2002-04-30, 01:26:00,VALID,914.882,VALID,0,VALID,99.7472,VALID,0,VALID,19.3692,VALID,145,VALID,0.524777,
2002-04-30, 01:27:00,VALID,914.884,VALID,0,VALID,99.751,VALID,0,VALID,19.36,VALID,163,VALID,1.02183,
2002-04-30, 01:28:00,VALID,914.883,VALID,0,VALID,99.7548,VALID,-0.0509425,VALID,19.3404,VALID,140,VALID,0.919705,
2002-04-30, 01:29:00,VALID,914.882,VALID,0,VALID,99.7472,VALID,0,VALID,19.3337,VALID,131,VALID,1.61678,
2002-04-30, 01:30:00,VALID,914.878,VALID,0,VALID,99.7574,VALID,-0.0169808,VALID,19.3175,VALID,157,VALID,1.41098,
2002-04-30, 01:31:00,VALID,914.866,VALID,0,VALID,99.7612,VALID,-0.0339617,VALID,19.321,VALID,135,VALID,0.899493,
2002-04-30, 01:32:00,VALID,914.859,VALID,0,VALID,99.7574,VALID,0,VALID,19.3208,VALID,140,VALID,1.4082,
2002-04-30, 01:33:00,VALID,914.852,VALID,0,VALID,99.7587,VALID,-0.0339617,VALID,19.3108,VALID,142,VALID,1.29006,
2002-04-30, 01:34:00,VALID,914.853,VALID,0,VALID,99.7587,VALID,-0.0339617,VALID,19.3215,VALID,148,VALID,1.42628,
2002-04-30, 01:35:00,VALID,914.831,VALID,0,VALID,99.7599,VALID,0,VALID,19.3212,VALID,133,VALID,1.19088,
2002-04-30, 01:36:00,VALID,914.828,VALID,0,VALID,99.7485,VALID,0,VALID,19.3143,VALID,139,VALID,1.35998,
2002-04-30, 01:37:00,VALID,914.812,VALID,0,VALID,99.7625,VALID,0,VALID,19.3048,VALID,145,VALID,1.61489,
2002-04-30, 01:38:00,VALID,914.809,VALID,0,VALID,99.7612,VALID,0,VALID,19.2817,VALID,152,VALID,2.02715,
2002-04-30, 01:39:00,VALID,914.808,VALID,0,VALID,99.7612,VALID,-0.0169808,VALID,19.282,VALID,152,VALID,2.08573,
2002-04-30, 01:40:00,VALID,914.785,VALID,0,VALID,99.7548,VALID,0,VALID,19.2825,VALID,146,VALID,2.32352,
2002-04-30, 01:41:00,VALID,914.786,VALID,0,VALID,99.7536,VALID,0,VALID,19.2785,VALID,159,VALID,1.3713,
2002-04-30, 01:42:00,VALID,914.795,VALID,0,VALID,99.7574,VALID,0,VALID,19.3019,VALID,145,VALID,2.6377,
2002-04-30, 01:43:00,VALID,914.767,VALID,0,VALID,99.7675,VALID,-0.0339617,VALID,19.3145,VALID,153,VALID,2.60508,
2002-04-30, 01:44:00,VALID,914.766,VALID,0,VALID,99.7587,VALID,0,VALID,19.3312,VALID,142,VALID,2.29527,
2002-04-30, 01:45:00,VALID,914.751,VALID,0,VALID,99.7637,VALID,-0.0169808,VALID,19.3277,VALID,142,VALID,1.68914,
2002-04-30, 01:46:00,VALID,914.719,VALID,0,VALID,99.7561,VALID,-0.0169808,VALID,19.3282,VALID,125,VALID,1.90064,
2002-04-30, 01:47:00,VALID,914.732,VALID,0,VALID,99.7548,VALID,-0.0509425,VALID,19.3178,VALID,122,VALID,1.42288,
2002-04-30, 01:48:00,VALID,914.707,VALID,0,VALID,99.7599,VALID,-0.0339617,VALID,19.3014,VALID,136,VALID,1.83678,
2002-04-30, 01:49:00,VALID,914.698,VALID,0,VALID,99.7574,VALID,0,VALID,19.2984,VALID,120,VALID,2.22897,
2002-04-30, 01:50:00,VALID,914.684,VALID,0,VALID,99.7497,VALID,0,VALID,19.2885,VALID,116,VALID,2.79492,
2002-04-30, 01:51:00,VALID,914.674,VALID,0,VALID,99.751,VALID,0,VALID,19.2947,VALID,130,VALID,1.77083,
2002-04-30, 01:52:00,VALID,914.676,VALID,0,VALID,99.7536,VALID,0,VALID,19.3046,VALID,113,VALID,2.48538,
2002-04-30, 01:53:00,VALID,914.661,VALID,0,VALID,99.7383,VALID,-0.0169808,VALID,19.321,VALID,124,VALID,2.41026,
2002-04-30, 01:54:00,VALID,914.664,VALID,0,VALID,99.7421,VALID,-0.0679233,VALID,19.3344,VALID,113,VALID,3.30849,
2002-04-30, 01:55:00,VALID,914.633,VALID,0,VALID,99.7332,VALID,-0.0339617,VALID,19.3399,VALID,85,VALID,3.11534,
2002-04-30, 01:56:00,VALID,914.625,VALID,0,VALID,99.7269,VALID,-0.0679233,VALID,19.3501,VALID,103,VALID,2.87138,
2002-04-30, 01:57:00,VALID,914.613,VALID,0,VALID,99.7218,VALID,-0.0679233,VALID,19.3766,VALID,92,VALID,2.79147,
2002-04-30, 01:58:00,VALID,914.599,VALID,0,VALID,99.718,VALID,-0.0849042,VALID,19.3826,VALID,109,VALID,2.85536,
2002-04-30, 01:59:00,VALID,914.565,VALID,0,VALID,99.7116,VALID,-0.0679233,VALID,19.4018,VALID,96,VALID,2.10861,
2002-04-30, 02:00:00,VALID,914.567,VALID,0,VALID,99.6989,VALID,-0.0679233,VALID,19.4186,VALID,114,VALID,3.27865,
2002-04-30, 02:01:00,VALID,914.54,VALID,0,VALID,99.6913,VALID,-0.0509425,VALID,19.4241,VALID,100,VALID,2.6723,
2002-04-30, 02:02:00,VALID,914.539,VALID,0,VALID,99.69,VALID,-0.0509425,VALID,19.4408,VALID,102,VALID,1.26432,
2002-04-30, 02:03:00,VALID,914.528,VALID,0,VALID,99.6836,VALID,-0.0849042,VALID,19.4537,VALID,70,VALID,2.05509,
2002-04-30, 02:04:00,VALID,914.512,VALID,0,VALID,99.6785,VALID,-0.0169808,VALID,19.4534,VALID,89,VALID,2.14706,
2002-04-30, 02:05:00,VALID,914.508,VALID,0,VALID,99.6646,VALID,-0.0339617,VALID,19.4534,VALID,92,VALID,2.05938,
2002-04-30, 02:06:00,VALID,914.483,VALID,0,VALID,99.662,VALID,-0.0169808,VALID,19.4532,VALID,98,VALID,1.82134,
2002-04-30, 02:07:00,VALID,914.481,VALID,0,VALID,99.6569,VALID,-0.0169808,VALID,19.4631,VALID,106,VALID,1.51085,
2002-04-30, 02:08:00,VALID,914.48,VALID,0,VALID,99.6582,VALID,-0.0509425,VALID,19.443,VALID,100,VALID,1.94819,
2002-04-30, 02:09:00,VALID,914.464,VALID,0,VALID,99.6378,VALID,-0.0509425,VALID,19.4534,VALID,91,VALID,1.46816,
2002-04-30, 02:10:00,VALID,914.442,VALID,0,VALID,99.6429,VALID,-0.0849042,VALID,19.4599,VALID,107,VALID,2.23438,
2002-04-30, 02:11:00,VALID,914.429,VALID,0,VALID,99.6442,VALID,-0.0339617,VALID,19.4502,VALID,97,VALID,1.94922,
2002-04-30, 02:12:00,VALID,914.405,VALID,0,VALID,99.6277,VALID,-0.0679233,VALID,19.4408,VALID,99,VALID,2.50957,
2002-04-30, 02:13:00,VALID,914.377,VALID,0,VALID,99.6302,VALID,-0.0679233,VALID,19.4341,VALID,106,VALID,1.67208,
2002-04-30, 02:14:00,VALID,914.356,VALID,0,VALID,99.615,VALID,-0.0679233,VALID,19.4435,VALID,111,VALID,1.34861,
2002-04-30, 02:15:00,VALID,914.33,VALID,0,VALID,99.62,VALID,-0.0339617,VALID,19.4405,VALID,108,VALID,1.05686,
2002-04-30, 02:16:00,VALID,914.307,VALID,0,VALID,99.6124,VALID,-0.0849042,VALID,19.4308,VALID,121,VALID,2.14503,
2002-04-30, 02:17:00,VALID,914.274,VALID,0,VALID,99.6048,VALID,-0.0339617,VALID,19.405,VALID,116,VALID,1.67399,
2002-04-30, 02:18:00,VALID,914.251,VALID,0,VALID,99.5832,VALID,-0.0509425,VALID,19.4112,VALID,117,VALID,1.61972,
2002-04-30, 02:19:00,VALID,914.218,VALID,0,VALID,99.5577,VALID,-0.0169808,VALID,19.4177,VALID,102,VALID,2.09794,
2002-04-30, 02:20:00,VALID,914.193,VALID,0,VALID,99.5437,VALID,-0.0679233,VALID,19.4045,VALID,120,VALID,1.89527,
2002-04-30, 02:21:00,VALID,914.189,VALID,0,VALID,99.5259,VALID,-0.0169808,VALID,19.4147,VALID,92,VALID,1.76855,
2002-04-30, 02:22:00,VALID,914.164,VALID,0,VALID,99.5221,VALID,-0.0679233,VALID,19.4338,VALID,121,VALID,1.32732,
2002-04-30, 02:23:00,VALID,914.129,VALID,0,VALID,99.5069,VALID,-0.0339617,VALID,19.447,VALID,92,VALID,1.28398,
2002-04-30, 02:24:00,VALID,914.11,VALID,0,VALID,99.4954,VALID,-0.0169808,VALID,19.4336,VALID,127,VALID,1.16982,
2002-04-30, 02:25:00,VALID,914.089,VALID,0,VALID,99.4992,VALID,-0.0509425,VALID,19.437,VALID,112,VALID,1.28228,
2002-04-30, 02:26:00,VALID,914.071,VALID,0,VALID,99.4725,VALID,-0.0509425,VALID,19.4276,VALID,116,VALID,1.69236,
2002-04-30, 02:27:00,VALID,914.053,VALID,0,VALID,99.4751,VALID,-0.0339617,VALID,19.4139,VALID,119,VALID,1.44082,
2002-04-30, 02:28:00,VALID,914.035,VALID,0,VALID,99.4725,VALID,-0.0679233,VALID,19.4209,VALID,108,VALID,1.14822,
2002-04-30, 02:29:00,VALID,914.008,VALID,0,VALID,99.4713,VALID,-0.0169808,VALID,19.4075,VALID,134,VALID,1.37078,
2002-04-30, 02:30:00,VALID,914.003,VALID,0,VALID,99.4776,VALID,-0.0339617,VALID,19.4043,VALID,139,VALID,1.06846,
2002-04-30, 02:31:00,VALID,913.974,VALID,0,VALID,99.4738,VALID,-0.0339617,VALID,19.4112,VALID,145,VALID,1.5367,
2002-04-30, 02:32:00,VALID,913.954,VALID,0,VALID,99.4649,VALID,-0.0169808,VALID,19.4107,VALID,147,VALID,1.54071,
2002-04-30, 02:33:00,VALID,913.94,VALID,0,VALID,99.4573,VALID,-0.0509425,VALID,19.4209,VALID,158,VALID,1.53848,
2002-04-30, 02:34:00,VALID,913.92,VALID,0,VALID,99.4649,VALID,0,VALID,19.4172,VALID,145,VALID,1.33491,
2002-04-30, 02:35:00,VALID,913.917,VALID,0,VALID,99.4547,VALID,-0.0169808,VALID,19.4239,VALID,153,VALID,1.47368,
2002-04-30, 02:36:00,VALID,913.909,VALID,0,VALID,99.4471,VALID,-0.0169808,VALID,19.4172,VALID,148,VALID,1.86451,
2002-04-30, 02:37:00,VALID,913.882,VALID,0,VALID,99.4509,VALID,-0.0509425,VALID,19.411,VALID,137,VALID,1.39083,
2002-04-30, 02:38:00,VALID,913.859,VALID,0,VALID,99.4382,VALID,-0.0169808,VALID,19.3978,VALID,146,VALID,1.74557,
2002-04-30, 02:39:00,VALID,913.842,VALID,0,VALID,99.4331,VALID,-0.0169808,VALID,19.401,VALID,146,VALID,1.53454,
2002-04-30, 02:40:00,VALID,913.814,VALID,0,VALID,99.4179,VALID,0,VALID,19.4045,VALID,141,VALID,1.71992,
2002-04-30, 02:41:00,VALID,913.789,VALID,0,VALID,99.3873,VALID,-0.0509425,VALID,19.3911,VALID,144,VALID,2.07465,
2002-04-30, 02:42:00,VALID,913.777,VALID,0,VALID,99.3632,VALID,-0.0169808,VALID,19.4015,VALID,144,VALID,1.88007,
2002-04-30, 02:43:00,VALID,913.759,VALID,0,VALID,99.3263,VALID,-0.0339617,VALID,19.4077,VALID,137,VALID,1.95251,
2002-04-30, 02:44:00,VALID,913.736,VALID,0,VALID,99.2805,VALID,-0.0679233,VALID,19.398,VALID,143,VALID,2.12232,
2002-04-30, 02:45:00,VALID,913.725,VALID,0,VALID,99.2475,VALID,-0.0509425,VALID,19.408,VALID,142,VALID,2.15013,
2002-04-30, 02:46:00,VALID,913.693,VALID,0,VALID,99.2042,VALID,0,VALID,19.4276,VALID,139,VALID,2.00021,
2002-04-30, 02:47:00,VALID,913.683,VALID,0,VALID,99.1712,VALID,0,VALID,19.4341,VALID,144,VALID,1.61563,
2002-04-30, 02:48:00,VALID,913.674,VALID,0,VALID,99.1165,VALID,-0.0339617,VALID,19.4497,VALID,136,VALID,1.80889,
2002-04-30, 02:49:00,VALID,913.645,VALID,0,VALID,99.0771,VALID,-0.0509425,VALID,19.4403,VALID,117,VALID,1.60221,
2002-04-30, 02:50:00,VALID,913.62,VALID,0,VALID,99.044,VALID,0,VALID,19.4594,VALID,125,VALID,1.34457,
2002-04-30, 02:51:00,VALID,913.609,VALID,0,VALID,98.9575,VALID,-0.0169808,VALID,19.4398,VALID,130,VALID,2.70641,
2002-04-30, 02:52:00,VALID,913.584,VALID,0,VALID,98.894,VALID,-0.0339617,VALID,19.4562,VALID,135,VALID,1.66153,
2002-04-30, 02:53:00,VALID,913.572,VALID,0,VALID,98.7973,VALID,-0.0169808,VALID,19.4793,VALID,118,VALID,1.95996,
2002-04-30, 02:54:00,VALID,913.529,VALID,0,VALID,98.7248,VALID,-0.0679233,VALID,19.4823,VALID,128,VALID,1.4353,
2002-04-30, 02:55:00,VALID,913.506,VALID,0,VALID,98.7821,VALID,-0.0509425,VALID,19.525,VALID,101,VALID,0.984976,
2002-04-30, 02:56:00,VALID,913.492,VALID,0,VALID,98.6943,VALID,-0.0679233,VALID,19.5245,VALID,103,VALID,1.32897,
2002-04-30, 02:57:00,VALID,913.468,VALID,0,VALID,98.6155,VALID,-0.0169808,VALID,19.5046,VALID,119,VALID,1.8109,
2002-04-30, 02:58:00,VALID,913.457,VALID,0,VALID,98.5633,VALID,-0.0169808,VALID,19.5049,VALID,110,VALID,1.64775,
2002-04-30, 02:59:00,VALID,913.449,VALID,0,VALID,98.5366,VALID,-0.0339617,VALID,19.5278,VALID,115,VALID,1.28008,
2002-04-30, 03:00:00,VALID,913.454,VALID,0,VALID,98.5468,VALID,-0.0169808,VALID,19.5439,VALID,140,VALID,0.958059,
2002-04-30, 03:01:00,VALID,913.449,VALID,0,VALID,98.5328,VALID,0,VALID,19.5504,VALID,119,VALID,1.13221,
2002-04-30, 03:02:00,VALID,913.437,VALID,0,VALID,98.4743,VALID,-0.0169808,VALID,19.5312,VALID,127,VALID,1.3896,
2002-04-30, 03:03:00,VALID,913.437,VALID,0,VALID,98.4781,VALID,-0.0509425,VALID,19.5243,VALID,105,VALID,1.50898,
2002-04-30, 03:04:00,VALID,913.417,VALID,0,VALID,98.4756,VALID,-0.0509425,VALID,19.5441,VALID,138,VALID,1.46953,
2002-04-30, 03:05:00,VALID,913.413,VALID,0,VALID,98.4209,VALID,-0.0509425,VALID,19.5374,VALID,131,VALID,1.68149,
2002-04-30, 03:06:00,VALID,913.407,VALID,0,VALID,98.3243,VALID,-0.0169808,VALID,19.5243,VALID,123,VALID,1.51891,
2002-04-30, 03:07:00,VALID,913.4,VALID,0,VALID,98.3408,VALID,0,VALID,19.5466,VALID,120,VALID,1.23598,
2002-04-30, 03:08:00,VALID,913.397,VALID,0,VALID,98.3306,VALID,-0.0339617,VALID,19.5531,VALID,131,VALID,0.90004,
2002-04-30, 03:09:00,VALID,913.376,VALID,0,VALID,98.2849,VALID,0,VALID,19.5434,VALID,131,VALID,1.17863,
2002-04-30, 03:10:00,VALID,913.365,VALID,0,VALID,98.2365,VALID,-0.0339617,VALID,19.5702,VALID,125,VALID,0.940304,
2002-04-30, 03:11:00,VALID,913.349,VALID,0,VALID,98.2416,VALID,-0.0509425,VALID,19.5573,VALID,132,VALID,1.16298,
2002-04-30, 03:12:00,VALID,913.34,VALID,0,VALID,98.1691,VALID,-0.0679233,VALID,19.5345,VALID,135,VALID,1.27148,
2002-04-30, 03:13:00,VALID,913.316,VALID,0,VALID,98.234,VALID,-0.0849042,VALID,19.5273,VALID,126,VALID,0.847957,
2002-04-30, 03:14:00,VALID,913.3,VALID,0,VALID,98.192,VALID,-0.0339617,VALID,19.5349,VALID,137,VALID,0.892525,
2002-04-30, 03:15:00,VALID,913.273,VALID,0,VALID,98.1641,VALID,-0.101885,VALID,19.5345,VALID,132,VALID,0.958934,
2002-04-30, 03:16:00,VALID,913.256,VALID,0,VALID,98.1793,VALID,-0.0339617,VALID,19.5275,VALID,145,VALID,0.931538,
2002-04-30, 03:17:00,VALID,913.254,VALID,0,VALID,98.1463,VALID,-0.0849042,VALID,19.5213,VALID,142,VALID,1.38796,
2002-04-30, 03:18:00,VALID,913.227,VALID,0,VALID,98.1641,VALID,-0.0509425,VALID,19.5111,VALID,155,VALID,1.07151,
2002-04-30, 03:19:00,VALID,913.222,VALID,0,VALID,98.0967,VALID,-0.0339617,VALID,19.4992,VALID,145,VALID,1.20545,
2002-04-30, 03:20:00,VALID,913.219,VALID,0,VALID,98.103,VALID,-0.0849042,VALID,19.5123,VALID,139,VALID,1.27268,
2002-04-30, 03:21:00,VALID,913.209,VALID,0,VALID,98.0445,VALID,-0.0509425,VALID,19.4989,VALID,139,VALID,1.51683,
2002-04-30, 03:22:00,VALID,913.21,VALID,0,VALID,98.0229,VALID,0,VALID,19.5014,VALID,132,VALID,1.6155,
2002-04-30, 03:23:00,VALID,913.197,VALID,0,VALID,97.9314,VALID,0,VALID,19.5056,VALID,143,VALID,1.53082,
2002-04-30, 03:24:00,VALID,913.192,VALID,0,VALID,97.8067,VALID,-0.0339617,VALID,19.5081,VALID,127,VALID,1.69872,
2002-04-30, 03:25:00,VALID,913.178,VALID,0,VALID,97.6707,VALID,-0.0509425,VALID,19.5474,VALID,130,VALID,1.95129,
2002-04-30, 03:26:00,VALID,913.188,VALID,0,VALID,97.4952,VALID,-0.0849042,VALID,19.5891,VALID,133,VALID,1.6139,
2002-04-30, 03:27:00,VALID,913.171,VALID,0,VALID,97.4647,VALID,-0.0849042,VALID,19.6023,VALID,122,VALID,1.79071,
2002-04-30, 03:28:00,VALID,913.16,VALID,0,VALID,97.3261,VALID,-0.0339617,VALID,19.609,VALID,138,VALID,1.95247,
2002-04-30, 03:29:00,VALID,913.159,VALID,0,VALID,97.2688,VALID,-0.0339617,VALID,19.6053,VALID,142,VALID,1.68832,
2002-04-30, 03:30:00,VALID,913.145,VALID,0,VALID,97.2205,VALID,-0.0509425,VALID,19.6085,VALID,141,VALID,1.78242,
2002-04-30, 03:31:00,VALID,913.141,VALID,0,VALID,97.1748,VALID,-0.0679233,VALID,19.6088,VALID,135,VALID,1.83224,
2002-04-30, 03:32:00,VALID,913.145,VALID,0,VALID,97.1557,VALID,0,VALID,19.6117,VALID,140,VALID,1.99054,
2002-04-30, 03:33:00,VALID,913.144,VALID,0,VALID,97.0946,VALID,-0.0509425,VALID,19.6085,VALID,146,VALID,2.32266,
2002-04-30, 03:34:00,VALID,913.133,VALID,0,VALID,97.1239,VALID,-0.0339617,VALID,19.6212,VALID,135,VALID,2.00701,